Regional Weather Roundup
Issued by NWS

Home | Current Version | Previous Version | Text Only | Print | Product List | Glossary Off
Versions: 1 2 3 4 5 6 7 8 9 10 11 12 13 14 15 16 17 18 19 20 21 22 23 24 25 26 27 28

000
ASUS45 KBOU 230210
RWRCO

WEATHER ROUNDUP FOR COLORADO
NATIONAL WEATHER SERVICE DENVER/BOULDER CO
700 PM MST WED NOV 22 2017

NOTE: "FAIR" INDICATES FEW OR NO CLOUDS BELOW 12000 FEET WITH NO
SIGNIFICANT WEATHER AND/OR OBSTRUCTIONS TO VISIBILITY.

COZ001>005-013-030-031-230300-
...NORTHWEST COLORADO...

CITY           SKY/WX    TMP DP  RH WIND       PRES   REMARKS
CRAIG          CLOUDY    45  36  70 E5        30.44R
HAYDEN         CLOUDY    43  36  76 E7        30.46R
MEEKER         FAIR      43  36  76 CALM      30.45R
RABBIT EARS PA FOG      N/A N/A N/A W9        30.55R VSB 1
STEAMBOAT SPGS CLOUDY    38  36  92 CALM      30.46R
WALDEN         CLOUDY    41  34  75 SW8       30.46S
$$

COZ006>008-011-230300-
...WEST CENTRAL VALLEYS...

CITY           SKY/WX    TMP DP  RH WIND       PRES   REMARKS
GRAND JUNCTION FAIR      47  30  51 NE5       30.39S
MONTROSE       FAIR      43  31  62 SE8       30.44S
EAGLE          CLOUDY    40  33  76 CALM      30.50R
RIFLE          FAIR      42  36  79 SE7       30.44R
DELTA          FAIR      49  30  48 CALM      30.41S
NUCLA          FAIR      52  30  43 NW5       30.45R
$$

COZ017>023-064>068-230300-
...SOUTHWEST COLORADO...

CITY           SKY/WX    TMP DP  RH WIND       PRES   REMARKS
DURANGO        FAIR      40  24  53 NE6       30.38R
CORTEZ         FAIR      55  32  41 SW6       30.37R
PAGOSA SPRINGS FAIR      41  23  48 CALM      30.44R
TELLURIDE      FAIR      43  31  63 CALM      30.55S
WOLF CREEK PAS FAIR      36  27  69 NW8G18    30.66R
$$

COZ009-010-012-014-032>034-037-058>063-230300-
...CENTRAL COLORADO...

CITY           SKY/WX    TMP DP  RH WIND       PRES   REMARKS
ASPEN          CLOUDY    39  33  79 S6        30.49S
BUENA VISTA    FAIR      43  34  70 N13       30.45S
COPPER MTN     SNOW      34  32  93 MISG      30.60S VSB 1/4
BERTHOUD PASS  CLOUDY    28  18  64 NW45G55   30.50R WCI  10
COTTONWOOD PAS FAIR      45  36  70 NW10      30.51F
GUNNISON       FAIR      42  32  67 NW3       30.48S
KREMMLING      CLOUDY    43  36  75 CALM      30.48S
LEADVILLE      CLOUDY    34  32  92 N8        30.53R WCI  27
MONARCH PASS   FAIR      32  28  86 NW21G28   30.71R WCI  20
SALIDA         FAIR      47  33  57 NW8       30.50R
SUNLIGHT       FAIR      34  32  93 NW6       30.64R WCI  29
WILKERSON PASS FAIR      34  28  80 N12G22    30.57S WCI  25
$$

COZ069>075-230300-
...SAN LUIS VALLEY/SANGRE DE CRISTO MOUNTAINS...

CITY           SKY/WX    TMP DP  RH WIND       PRES   REMARKS
ALAMOSA        FAIR      42  28  57 E3        30.41R
DEL NORTE      FAIR      51  30  46 NW8       30.45R
LA VETA PASS   FAIR      39  27  60 SW16        N/A
SAGUACHE       FAIR      48  32  53 N12G17    30.45R
$$

COZ035-036-038>040-230300-
...NORTHERN COLORADO FRONT RANGE...

CITY           SKY/WX    TMP DP  RH WIND       PRES   REMARKS
DENVER INTL AP MOCLDY    52  34  50 W8        30.26R
DMNS CITY PARK   N/A     57  33  39 N7        30.26S
AURORA         PTCLDY    54  34  47 W6        30.28R
FRONT RANGE AP MOCLDY    52  37  58 SW8       30.28R
ERIE MUNI ARPT FAIR      51  33  49 CALM      30.30S
BOULDER MUN AP FAIR      59  34  38 W6G16     30.25R
CENTENNIAL     FAIR      57  35  43 NW15G22   30.29S
BROOMFIELD     PTCLDY    55  34  44 W3        30.28S
FORT COLLINS   FAIR      51  36  56 VRB3      30.23R
LONGMONT       FAIR      57  34  43 CALM      30.25S
$$

COZ041-046-047-076>085-087-088-230300-
...PIKES PEAK/PALMER DIVIDE AND SOUTHERN FOOTHILLS...

CITY           SKY/WX    TMP DP  RH WIND       PRES   REMARKS
COLO. SPRINGS  MOCLDY    48  30  49 NE9       30.31S
A. F. ACADEMY  FAIR      45  32  60 NE8       30.32R
SCHRIEVER AFB  FAIR      50  27  41 N3        30.31S
CHEYENNE MTN   FAIR      54  31  41 NW8       30.29R
ELLICOTT         N/A    N/A N/A N/A CALM      30.29S
FALCON         FAIR      45  31  59 NW3       30.34F
FORT CARSON    FAIR      49  28  44 N8        30.28S
LIMON          FAIR      43  32  65 W3        30.26S
MONUMENT HILL  FAIR      43  32  65 W6        30.35S
CANON CITY     FAIR      61  34  36 SW6       30.28R
WALSENBURG     FAIR      55  32  41 W10       30.30R
TRINIDAD       FAIR      44  30  57 W9        30.28R
$$

COZ042>045-048>051-090-091-230300-
...NORTHEAST COLORADO...

CITY           SKY/WX    TMP DP  RH WIND       PRES   REMARKS
GREELEY ARPT   FAIR      50  35  56 CALM      30.22S
AKRON          FAIR      53  36  52 NW5       30.21S
BURLINGTON     FAIR      46  34  62 W9        30.19R
WRAY           NOT AVBL
YUMA           FAIR      50  34  53 NW9       30.18S
STERLING       FAIR      57  39  51 NW15      30.16S
HOLYOKE        FAIR      52  36  54 W9        30.15R
FORT MORGAN    FAIR      58  34  41 NW10      30.22R
$$

COZ086-089-092>099-230300-
...SOUTHEAST COLORADO...

CITY           SKY/WX    TMP DP  RH WIND       PRES   REMARKS
PUEBLO         FAIR      46  28  49 NE5       30.23R
LA JUNTA       FAIR      54  31  41 CALM      30.21R
LAMAR          FAIR      42  24  49 SW9       30.17R
SPRINGFIELD      N/A     41  26  55 CALM      30.23R
$$




USA.gov is the U.S. government's official web portal to all federal, state and local government web resources and services.